Time,TemperatureF,DewpointF,PressureIn,WindDirection,WindDirectionDegrees,WindSpeedMPH,WindSpeedGustMPH,Humidity,HourlyPrecipIn,Conditions,Clouds,dailyrainin,SoftwareType,DateUTC
2013-05-19 00:01:00,67.7,22.6,29.73,South,180,2.0,3.0,18,0.00,,,0.00,Weather View 32 v70,2013-05-19 04:01:00,
2013-05-19 00:06:00,67.7,22.6,29.73,South,180,2.0,3.0,18,0.00,,,0.00,Weather View 32 v70,2013-05-19 04:06:00,
2013-05-19 00:11:00,67.7,22.6,29.73,South,180,2.0,3.0,18,0.00,,,0.00,Weather View 32 v70,2013-05-19 04:11:00,
2013-05-19 00:16:00,67.7,22.6,29.73,South,180,1.0,2.0,18,0.00,,,0.00,Weather View 32 v70,2013-05-19 04:16:00,
2013-05-19 00:21:00,67.7,21.2,29.73,South,180,1.0,2.0,17,0.00,,,0.00,Weather View 32 v70,2013-05-19 04:21:00,
2013-05-19 00:26:00,67.7,21.2,29.73,SSE,157,2.0,2.0,17,0.00,,,0.00,Weather View 32 v70,2013-05-19 04:26:00,
2013-05-19 00:31:00,67.6,21.1,29.73,SE,135,2.0,3.0,17,0.00,,,0.00,Weather View 32 v70,2013-05-19 04:31:00,
2013-05-19 00:36:00,67.7,21.2,29.72,SE,135,1.0,4.0,17,0.00,,,0.00,Weather View 32 v70,2013-05-19 04:36:00,
2013-05-19 00:41:00,67.7,21.2,29.72,SE,135,1.0,4.0,17,0.00,,,0.00,Weather View 32 v70,2013-05-19 04:41:00,
2013-05-19 00:46:00,67.6,21.1,29.73,SE,135,1.0,4.0,17,0.00,,,0.00,Weather View 32 v70,2013-05-19 04:46:00,
2013-05-19 00:51:00,67.7,21.2,29.73,SE,135,2.0,4.0,17,0.00,,,0.00,Weather View 32 v70,2013-05-19 04:51:00,
2013-05-19 00:56:00,67.7,21.2,29.73,SE,135,2.0,4.0,17,0.00,,,0.00,Weather View 32 v70,2013-05-19 04:56:00,
2013-05-19 01:01:00,67.7,21.2,29.73,SE,135,0.0,4.0,17,0.00,,,0.00,Weather View 32 v70,2013-05-19 05:01:00,
2013-05-19 01:06:00,67.7,21.2,29.73,SE,135,0.0,4.0,17,0.00,,,0.00,Weather View 32 v70,2013-05-19 05:06:00,
2013-05-19 01:11:00,67.8,21.3,29.73,SE,135,0.0,4.0,17,0.00,,,0.00,Weather View 32 v70,2013-05-19 05:11:00,
2013-05-19 01:16:00,67.8,21.3,29.73,SE,135,2.0,4.0,17,0.01,,,0.01,Weather View 32 v70,2013-05-19 05:16:00,
2013-05-19 01:21:00,67.7,21.2,29.72,SE,135,0.0,4.0,17,0.01,,,0.01,Weather View 32 v70,2013-05-19 05:21:00,
2013-05-19 01:26:00,67.7,21.2,29.72,SE,135,1.0,4.0,17,0.01,,,0.01,Weather View 32 v70,2013-05-19 05:26:00,
2013-05-19 01:31:00,67.6,21.1,29.72,SE,135,0.0,4.0,17,0.01,,,0.01,Weather View 32 v70,2013-05-19 05:31:00,
2013-05-19 01:36:00,67.6,21.1,29.72,SE,135,2.0,2.0,17,0.01,,,0.01,Weather View 32 v70,2013-05-19 05:36:00,
2013-05-19 01:41:00,67.5,21.1,29.71,SE,135,0.0,2.0,17,0.01,,,0.01,Weather View 32 v70,2013-05-19 05:41:00,
2013-05-19 01:46:00,67.4,21.0,29.71,SE,135,0.0,2.0,17,0.01,,,0.01,Weather View 32 v70,2013-05-19 05:46:00,
2013-05-19 01:51:00,67.4,21.0,29.71,SE,135,0.0,2.0,17,0.01,,,0.01,Weather View 32 v70,2013-05-19 05:51:00,
2013-05-19 01:56:00,67.4,21.0,29.71,SE,135,0.0,2.0,17,0.01,,,0.01,Weather View 32 v70,2013-05-19 05:56:00,
2013-05-19 02:01:00,67.4,21.0,29.71,SE,135,0.0,2.0,17,0.01,,,0.01,Weather View 32 v70,2013-05-19 06:01:00,
2013-05-19 02:06:00,67.4,21.0,29.71,SE,135,0.0,2.0,17,0.01,,,0.01,Weather View 32 v70,2013-05-19 06:06:00,
2013-05-19 02:11:00,67.4,21.0,29.71,SE,135,0.0,2.0,17,0.01,,,0.01,Weather View 32 v70,2013-05-19 06:11:00,
2013-05-19 02:17:00,67.2,20.8,29.71,SE,135,0.0,2.0,17,0.00,,,0.01,Weather View 32 v70,2013-05-19 06:17:00,
2013-05-19 02:22:00,67.2,22.2,29.71,SE,135,0.0,2.0,18,0.00,,,0.01,Weather View 32 v70,2013-05-19 06:22:00,
2013-05-19 02:27:00,67.1,22.1,29.71,SE,135,2.0,2.0,18,0.00,,,0.01,Weather View 32 v70,2013-05-19 06:27:00,
2013-05-19 02:32:00,66.9,20.6,29.71,SE,135,2.0,2.0,17,0.00,,,0.01,Weather View 32 v70,2013-05-19 06:32:00,
2013-05-19 02:37:00,66.8,21.8,29.71,SE,135,2.0,2.0,18,0.00,,,0.01,Weather View 32 v70,2013-05-19 06:37:00,
2013-05-19 02:42:00,66.7,21.8,29.71,SE,135,2.0,2.0,18,0.00,,,0.01,Weather View 32 v70,2013-05-19 06:42:00,
2013-05-19 02:47:00,66.7,21.8,29.70,SE,135,0.0,2.0,18,0.00,,,0.01,Weather View 32 v70,2013-05-19 06:47:00,
2013-05-19 02:52:00,66.7,21.8,29.70,SE,135,0.0,2.0,18,0.00,,,0.01,Weather View 32 v70,2013-05-19 06:52:00,
2013-05-19 02:57:00,66.7,21.8,29.70,SE,135,1.0,2.0,18,0.00,,,0.01,Weather View 32 v70,2013-05-19 06:57:00,
2013-05-19 03:02:00,66.7,21.8,29.70,SE,135,2.0,2.0,18,0.00,,,0.01,Weather View 32 v70,2013-05-19 07:02:00,
2013-05-19 03:07:00,66.8,21.8,29.70,SE,135,1.0,2.0,18,0.00,,,0.01,Weather View 32 v70,2013-05-19 07:07:00,
2013-05-19 03:12:00,66.9,23.2,29.70,SE,135,2.0,2.0,19,0.00,,,0.01,Weather View 32 v70,2013-05-19 07:12:00,
2013-05-19 03:17:00,66.9,21.9,29.70,SE,135,2.0,2.0,18,0.00,,,0.01,Weather View 32 v70,2013-05-19 07:17:00,
2013-05-19 03:22:00,66.9,23.2,29.70,SE,135,2.0,2.0,19,0.00,,,0.01,Weather View 32 v70,2013-05-19 07:22:00,
2013-05-19 03:27:00,66.9,21.9,29.70,SE,135,1.0,2.0,18,0.00,,,0.01,Weather View 32 v70,2013-05-19 07:27:00,
2013-05-19 03:32:00,66.9,23.2,29.70,SE,135,1.0,2.0,19,0.00,,,0.01,Weather View 32 v70,2013-05-19 07:32:00,
2013-05-19 03:37:00,66.9,21.9,29.70,SE,135,2.0,2.0,18,0.00,,,0.01,Weather View 32 v70,2013-05-19 07:37:00,
2013-05-19 03:42:00,67.1,23.4,29.70,SE,135,2.0,2.0,19,0.00,,,0.01,Weather View 32 v70,2013-05-19 07:42:00,
2013-05-19 03:47:00,67.3,22.2,29.70,SE,135,1.0,2.0,18,0.00,,,0.01,Weather View 32 v70,2013-05-19 07:47:00,
2013-05-19 03:52:00,67.3,22.2,29.70,SE,135,2.0,2.0,18,0.00,,,0.01,Weather View 32 v70,2013-05-19 07:52:00,
2013-05-19 03:57:00,67.3,22.2,29.70,SE,135,2.0,2.0,18,0.00,,,0.01,Weather View 32 v70,2013-05-19 07:57:00,
2013-05-19 04:02:00,67.5,22.4,29.70,South,180,2.0,3.0,18,0.00,,,0.01,Weather View 32 v70,2013-05-19 08:02:00,
2013-05-19 04:07:00,67.6,22.5,29.69,SSE,157,4.0,5.0,18,0.00,,,0.01,Weather View 32 v70,2013-05-19 08:07:00,
2013-05-19 04:12:00,67.6,22.5,29.70,SSE,157,2.0,5.0,18,0.01,,,0.02,Weather View 32 v70,2013-05-19 08:12:00,
2013-05-19 04:17:00,67.7,22.6,29.69,SSE,157,2.0,5.0,18,0.01,,,0.02,Weather View 32 v70,2013-05-19 08:17:00,
2013-05-19 04:22:00,67.7,22.6,29.69,SSW,202,2.0,7.0,18,0.01,,,0.02,Weather View 32 v70,2013-05-19 08:22:00,
2013-05-19 04:27:00,67.7,21.2,29.70,South,180,3.0,7.0,17,0.02,,,0.03,Weather View 32 v70,2013-05-19 08:27:00,
2013-05-19 04:32:00,67.8,21.3,29.70,SSW,202,3.0,7.0,17,0.02,,,0.03,Weather View 32 v70,2013-05-19 08:32:00,
2013-05-19 04:37:00,67.9,21.4,29.70,SSW,202,6.0,7.0,17,0.02,,,0.03,Weather View 32 v70,2013-05-19 08:37:00,
2013-05-19 04:42:00,68.0,20.0,29.70,WSW,247,4.0,7.0,16,0.02,,,0.03,Weather View 32 v70,2013-05-19 08:42:00,
2013-05-19 04:47:00,68.3,20.3,29.70,SW,225,4.0,7.0,16,0.02,,,0.03,Weather View 32 v70,2013-05-19 08:47:00,
2013-05-19 04:52:00,68.5,20.4,29.70,SSW,202,3.0,7.0,16,0.02,,,0.03,Weather View 32 v70,2013-05-19 08:52:00,
2013-05-19 04:57:00,68.4,18.8,29.70,SW,225,4.0,9.0,15,0.02,,,0.03,Weather View 32 v70,2013-05-19 08:57:00,
2013-05-19 05:02:00,68.4,18.8,29.69,South,180,4.0,9.0,15,0.02,,,0.03,Weather View 32 v70,2013-05-19 09:02:00,
2013-05-19 05:07:00,68.3,17.2,29.70,SW,225,3.0,9.0,14,0.02,,,0.03,Weather View 32 v70,2013-05-19 09:07:00,
2013-05-19 05:12:00,68.3,17.2,29.70,SSW,202,2.0,9.0,14,0.01,,,0.03,Weather View 32 v70,2013-05-19 09:12:00,
2013-05-19 05:17:00,68.4,15.5,29.70,SW,225,4.0,9.0,13,0.01,,,0.03,Weather View 32 v70,2013-05-19 09:17:00,
2013-05-19 05:22:00,68.5,13.8,29.70,SW,225,2.0,9.0,12,0.01,,,0.03,Weather View 32 v70,2013-05-19 09:22:00,
2013-05-19 05:27:00,68.6,11.9,29.71,SW,225,2.0,9.0,11,0.00,,,0.03,Weather View 32 v70,2013-05-19 09:27:00,
2013-05-19 05:32:00,68.7,9.8,29.71,SW,225,5.0,9.0,10,0.00,,,0.03,Weather View 32 v70,2013-05-19 09:32:00,
2013-05-19 05:37:00,68.7,9.8,29.71,SW,225,3.0,9.0,10,0.00,,,0.03,Weather View 32 v70,2013-05-19 09:37:00,
2013-05-19 05:42:00,68.8,7.6,29.71,SSW,202,1.0,9.0,9,0.00,,,0.03,Weather View 32 v70,2013-05-19 09:42:00,
2013-05-19 05:47:00,68.7,4.9,29.71,SSW,202,2.0,9.0,8,0.01,,,0.04,Weather View 32 v70,2013-05-19 09:47:00,
2013-05-19 05:52:00,68.7,4.9,29.71,SSW,202,2.0,9.0,8,0.01,,,0.04,Weather View 32 v70,2013-05-19 09:52:00,
2013-05-19 05:57:00,68.6,4.8,29.71,SSW,202,2.0,9.0,8,0.01,,,0.04,Weather View 32 v70,2013-05-19 09:57:00,
2013-05-19 06:02:00,68.6,1.9,29.71,SSW,202,4.0,9.0,7,0.01,,,0.04,Weather View 32 v70,2013-05-19 10:02:00,
2013-05-19 06:07:00,68.6,1.9,29.71,SSW,202,1.0,7.0,7,0.02,,,0.05,Weather View 32 v70,2013-05-19 10:07:00,
2013-05-19 06:12:00,68.6,1.9,29.71,SSW,202,3.0,6.0,7,0.02,,,0.05,Weather View 32 v70,2013-05-19 10:12:00,
2013-05-19 06:17:00,68.6,-1.3,29.71,SSW,202,1.0,6.0,6,0.02,,,0.05,Weather View 32 v70,2013-05-19 10:17:00,
2013-05-19 06:22:00,68.5,-1.4,29.72,SSW,202,2.0,6.0,6,0.02,,,0.05,Weather View 32 v70,2013-05-19 10:22:00,
2013-05-19 06:27:00,68.5,-1.4,29.73,South,180,0.0,6.0,6,0.02,,,0.05,Weather View 32 v70,2013-05-19 10:27:00,
2013-05-19 06:32:00,68.5,-5.2,29.73,South,180,1.0,5.0,5,0.02,,,0.05,Weather View 32 v70,2013-05-19 10:32:00,
2013-05-19 06:38:00,68.5,-5.2,29.73,SSW,202,2.0,5.0,5,0.02,,,0.05,Weather View 32 v70,2013-05-19 10:38:00,
2013-05-19 06:43:00,68.5,-5.2,29.73,South,180,1.0,5.0,5,0.01,,,0.05,Weather View 32 v70,2013-05-19 10:43:00,
2013-05-19 06:48:00,68.5,-5.2,29.73,South,180,1.0,5.0,5,0.01,,,0.05,Weather View 32 v70,2013-05-19 10:48:00,
2013-05-19 06:53:00,68.5,-9.8,29.73,SSE,157,2.0,5.0,4,0.01,,,0.05,Weather View 32 v70,2013-05-19 10:53:00,
2013-05-19 06:58:00,68.6,-9.7,29.73,SE,135,2.0,5.0,4,0.01,,,0.05,Weather View 32 v70,2013-05-19 10:58:00,
2013-05-19 07:03:00,68.6,-9.7,29.73,ESE,112,1.0,5.0,4,0.01,,,0.05,Weather View 32 v70,2013-05-19 11:03:00,
2013-05-19 07:08:00,68.6,-9.7,29.73,ESE,112,1.0,5.0,4,0.00,,,0.05,Weather View 32 v70,2013-05-19 11:08:00,
2013-05-19 07:13:00,68.6,-9.7,29.73,SE,135,2.0,4.0,4,0.00,,,0.05,Weather View 32 v70,2013-05-19 11:13:00,
2013-05-19 07:18:00,68.6,-9.7,29.73,South,180,2.0,4.0,4,0.00,,,0.05,Weather View 32 v70,2013-05-19 11:18:00,
2013-05-19 07:23:00,68.7,-9.7,29.73,South,180,1.0,4.0,4,0.00,,,0.05,Weather View 32 v70,2013-05-19 11:23:00,
2013-05-19 07:28:00,68.7,-9.7,29.73,South,180,2.0,4.0,4,0.00,,,0.05,Weather View 32 v70,2013-05-19 11:28:00,
2013-05-19 07:33:00,68.8,-9.6,29.73,South,180,3.0,4.0,4,0.00,,,0.05,Weather View 32 v70,2013-05-19 11:33:00,
2013-05-19 07:38:00,68.9,-9.5,29.73,South,180,1.0,4.0,4,0.00,,,0.05,Weather View 32 v70,2013-05-19 11:38:00,
2013-05-19 07:43:00,68.9,-9.5,29.73,WSW,247,1.0,4.0,4,0.00,,,0.05,Weather View 32 v70,2013-05-19 11:43:00,
2013-05-19 07:48:00,69.1,-15.1,29.73,SSW,202,3.0,4.0,3,0.00,,,0.05,Weather View 32 v70,2013-05-19 11:48:00,
2013-05-19 07:53:00,69.2,-15.1,29.73,South,180,2.0,4.0,3,0.00,,,0.05,Weather View 32 v70,2013-05-19 11:53:00,
2013-05-19 07:58:00,69.3,-15.0,29.74,SSW,202,1.0,4.0,3,0.00,,,0.05,Weather View 32 v70,2013-05-19 11:58:00,
2013-05-19 08:03:00,69.4,-22.8,29.74,South,180,2.0,4.0,2,0.00,,,0.05,Weather View 32 v70,2013-05-19 12:03:00,
2013-05-19 08:08:00,69.6,-22.6,29.74,SSW,202,3.0,4.0,2,0.00,,,0.05,Weather View 32 v70,2013-05-19 12:08:00,
2013-05-19 08:13:00,69.7,-22.6,29.74,South,180,2.0,4.0,2,0.00,,,0.05,Weather View 32 v70,2013-05-19 12:13:00,
2013-05-19 08:18:00,69.9,-22.4,29.74,South,180,1.0,4.0,2,0.00,,,0.05,Weather View 32 v70,2013-05-19 12:18:00,
2013-05-19 08:23:00,69.9,-35.1,29.74,South,180,2.0,4.0,1,0.00,,,0.05,Weather View 32 v70,2013-05-19 12:23:00,
2013-05-19 08:28:00,69.9,-35.1,29.74,South,180,3.0,4.0,1,0.00,,,0.05,Weather View 32 v70,2013-05-19 12:28:00,
2013-05-19 08:33:00,70.3,-34.9,29.74,ENE,67,1.0,4.0,1,0.00,,,0.05,Weather View 32 v70,2013-05-19 12:33:00,
2013-05-19 08:38:00,70.8,-34.6,29.74,SW,225,1.0,4.0,1,0.00,,,0.05,Weather View 32 v70,2013-05-19 12:38:00,
2013-05-19 08:43:00,70.4,-34.8,29.74,SSE,157,3.0,5.0,1,0.00,,,0.05,Weather View 32 v70,2013-05-19 12:43:00,
2013-05-19 08:48:00,71.1,-34.4,29.74,SSE,157,4.0,6.0,1,0.00,,,0.05,Weather View 32 v70,2013-05-19 12:48:00,
2013-05-19 08:53:00,71.0,-34.5,29.74,SE,135,3.0,6.0,1,0.00,,,0.05,Weather View 32 v70,2013-05-19 12:53:00,
2013-05-19 08:58:00,70.9,-34.5,29.74,SSE,157,5.0,6.0,1,0.00,,,0.05,Weather View 32 v70,2013-05-19 12:58:00,
2013-05-19 09:03:00,70.9,-34.5,29.74,SE,135,4.0,7.0,1,0.00,,,0.05,Weather View 32 v70,2013-05-19 13:03:00,
2013-05-19 09:08:00,71.5,-34.2,29.74,SE,135,5.0,7.0,1,0.00,,,0.05,Weather View 32 v70,2013-05-19 13:08:00,
2013-05-19 09:13:00,71.7,-34.0,29.74,SE,135,3.0,7.0,1,0.00,,,0.05,Weather View 32 v70,2013-05-19 13:13:00,
2013-05-19 09:18:00,71.9,-33.9,29.74,SE,135,5.0,7.0,1,0.00,,,0.05,Weather View 32 v70,2013-05-19 13:18:00,
2013-05-19 09:23:00,72.4,-33.6,29.74,South,180,2.0,7.0,1,0.00,,,0.05,Weather View 32 v70,2013-05-19 13:23:00,
2013-05-19 09:28:00,72.1,-33.8,29.75,SE,135,4.0,7.0,1,0.00,,,0.05,Weather View 32 v70,2013-05-19 13:28:00,
2013-05-19 09:33:00,72.3,-33.7,29.75,South,180,2.0,7.0,1,0.00,,,0.05,Weather View 32 v70,2013-05-19 13:33:00,
2013-05-19 09:38:00,72.9,-33.3,29.75,South,180,3.0,7.0,1,0.00,,,0.05,Weather View 32 v70,2013-05-19 13:38:00,
2013-05-19 09:43:00,73.3,-1.8,29.75,SSW,202,1.0,7.0,5,0.00,,,0.05,Weather View 32 v70,2013-05-19 13:43:00,
2013-05-19 09:48:00,73.7,23.1,29.74,SE,135,4.0,7.0,15,0.00,,,0.05,Weather View 32 v70,2013-05-19 13:48:00,
2013-05-19 09:53:00,73.8,32.5,29.74,SW,225,2.0,7.0,22,0.00,,,0.05,Weather View 32 v70,2013-05-19 13:53:00,
2013-05-19 09:58:00,73.9,48.6,29.74,SSW,202,6.0,9.0,41,0.00,,,0.05,Weather View 32 v70,2013-05-19 13:58:00,
2013-05-19 10:03:00,74.6,49.3,29.74,South,180,2.0,14.0,41,0.00,,,0.05,Weather View 32 v70,2013-05-19 14:03:00,
2013-05-19 10:08:00,74.7,53.6,29.74,SSE,157,6.0,14.0,48,0.00,,,0.05,Weather View 32 v70,2013-05-19 14:08:00,
2013-05-19 10:13:00,74.5,55.7,29.74,SSE,157,4.0,14.0,52,0.00,,,0.05,Weather View 32 v70,2013-05-19 14:13:00,
2013-05-19 10:19:00,74.2,55.9,29.74,SSE,157,6.0,14.0,53,-0.05,,,0.05,Weather View 32 v70,2013-05-19 14:19:00,
2013-05-19 10:24:00,74.1,52.5,29.74,SSE,157,6.0,14.0,47,0.00,,,0.05,Weather View 32 v70,2013-05-19 14:24:00,
2013-05-19 10:29:00,74.2,52.0,29.74,SSW,202,2.0,14.0,46,0.00,,,0.05,Weather View 32 v70,2013-05-19 14:29:00,
2013-05-19 10:34:00,73.6,49.7,29.74,South,180,7.0,14.0,43,0.00,,,0.05,Weather View 32 v70,2013-05-19 14:34:00,
2013-05-19 10:39:00,73.1,46.6,29.74,South,180,5.0,14.0,39,0.00,,,0.05,Weather View 32 v70,2013-05-19 14:39:00,
2013-05-19 10:44:00,73.3,43.9,29.75,SSW,202,2.0,14.0,35,0.01,,,0.06,Weather View 32 v70,2013-05-19 14:44:00,
2013-05-19 10:49:00,73.2,39.0,29.75,SSW,202,3.0,14.0,29,0.03,,,0.08,Weather View 32 v70,2013-05-19 14:49:00,
2013-05-19 10:54:00,73.6,35.5,29.75,South,180,2.0,14.0,25,0.03,,,0.08,Weather View 32 v70,2013-05-19 14:54:00,
2013-05-19 10:59:00,73.6,37.5,29.74,South,180,2.0,14.0,27,0.03,,,0.08,Weather View 32 v70,2013-05-19 14:59:00,
2013-05-19 11:04:00,73.9,39.6,29.74,South,180,1.0,11.0,29,0.03,,,0.08,Weather View 32 v70,2013-05-19 15:04:00,
2013-05-19 11:09:00,74.0,47.4,29.74,South,180,6.0,11.0,39,0.03,,,0.08,Weather View 32 v70,2013-05-19 15:09:00,
2013-05-19 11:14:00,74.9,47.5,29.74,South,180,6.0,11.0,38,0.03,,,0.08,Weather View 32 v70,2013-05-19 15:14:00,
2013-05-19 11:19:00,74.8,56.5,29.74,South,180,3.0,11.0,53,0.03,,,0.08,Weather View 32 v70,2013-05-19 15:19:00,
2013-05-19 11:24:00,75.3,61.3,29.73,South,180,4.0,11.0,62,0.03,,,0.08,Weather View 32 v70,2013-05-19 15:24:00,
2013-05-19 11:29:00,76.3,61.8,29.73,South,180,5.0,11.0,61,0.03,,,0.08,Weather View 32 v70,2013-05-19 15:29:00,
2013-05-19 11:34:00,76.3,67.0,29.73,South,180,6.0,11.0,73,0.03,,,0.08,Weather View 32 v70,2013-05-19 15:34:00,
2013-05-19 11:39:00,76.7,70.8,29.73,South,180,4.0,9.0,82,0.03,,,0.08,Weather View 32 v70,2013-05-19 15:39:00,
2013-05-19 11:44:00,76.9,71.0,29.73,South,180,7.0,9.0,82,0.02,,,0.08,Weather View 32 v70,2013-05-19 15:44:00,
2013-05-19 11:49:00,76.9,72.7,29.73,South,180,4.0,10.0,87,0.00,,,0.08,Weather View 32 v70,2013-05-19 15:49:00,
2013-05-19 11:54:00,76.9,73.4,29.73,SW,225,2.0,10.0,89,0.00,,,0.08,Weather View 32 v70,2013-05-19 15:54:00,
2013-05-19 11:59:00,77.8,73.3,29.73,SSW,202,4.0,10.0,86,0.00,,,0.08,Weather View 32 v70,2013-05-19 15:59:00,
2013-05-19 12:04:00,77.2,74.7,29.72,South,180,7.0,14.0,92,0.00,,,0.08,Weather View 32 v70,2013-05-19 16:04:00,
2013-05-19 12:09:00,77.1,74.3,29.73,South,180,8.0,14.0,91,0.00,,,0.08,Weather View 32 v70,2013-05-19 16:09:00,
2013-05-19 12:14:00,76.7,73.5,29.73,SSW,202,9.0,14.0,90,0.00,,,0.08,Weather View 32 v70,2013-05-19 16:14:00,
2013-05-19 12:19:00,77.6,75.4,29.72,South,180,6.0,14.0,93,0.00,,,0.08,Weather View 32 v70,2013-05-19 16:19:00,
2013-05-19 12:24:00,78.0,76.1,29.72,South,180,7.0,14.0,94,0.00,,,0.08,Weather View 32 v70,2013-05-19 16:24:00,
2013-05-19 12:29:00,78.5,76.6,29.72,South,180,8.0,14.0,94,0.00,,,0.08,Weather View 32 v70,2013-05-19 16:29:00,
2013-05-19 12:34:00,78.8,76.9,29.72,SSW,202,6.0,14.0,94,0.00,,,0.08,Weather View 32 v70,2013-05-19 16:34:00,
2013-05-19 12:39:00,78.1,76.2,29.72,South,180,4.0,14.0,94,0.00,,,0.08,Weather View 32 v70,2013-05-19 16:39:00,
2013-05-19 12:44:00,78.1,76.5,29.71,SW,225,4.0,14.0,95,0.00,,,0.08,Weather View 32 v70,2013-05-19 16:44:00,
2013-05-19 12:49:00,78.3,76.4,29.71,South,180,4.0,14.0,94,0.00,,,0.08,Weather View 32 v70,2013-05-19 16:49:00,
2013-05-19 12:54:00,78.4,76.5,29.71,SW,225,4.0,14.0,94,0.00,,,0.08,Weather View 32 v70,2013-05-19 16:54:00,
2013-05-19 12:59:00,78.5,76.3,29.71,SW,225,4.0,14.0,93,0.00,,,0.08,Weather View 32 v70,2013-05-19 16:59:00,
2013-05-19 13:04:00,78.7,76.5,29.70,South,180,6.0,12.0,93,0.00,,,0.08,Weather View 32 v70,2013-05-19 17:04:00,
2013-05-19 13:09:00,78.3,76.4,29.70,WSW,247,7.0,12.0,94,0.00,,,0.08,Weather View 32 v70,2013-05-19 17:09:00,
2013-05-19 13:14:00,76.6,70.7,29.70,WNW,292,6.0,12.0,82,0.01,,,0.09,Weather View 32 v70,2013-05-19 17:14:00,
2013-05-19 13:19:00,75.7,66.0,29.70,West,270,3.0,12.0,72,0.01,,,0.09,Weather View 32 v70,2013-05-19 17:19:00,
2013-05-19 13:24:00,75.6,62.1,29.71,WSW,247,2.0,12.0,63,0.01,,,0.09,Weather View 32 v70,2013-05-19 17:24:00,
2013-05-19 13:29:00,75.5,58.7,29.71,WNW,292,6.0,11.0,56,0.01,,,0.09,Weather View 32 v70,2013-05-19 17:29:00,
2013-05-19 13:34:00,75.2,57.4,29.71,West,270,5.0,11.0,54,0.01,,,0.09,Weather View 32 v70,2013-05-19 17:34:00,
2013-05-19 13:39:00,74.9,55.5,29.70,WSW,247,7.0,11.0,51,0.01,,,0.09,Weather View 32 v70,2013-05-19 17:39:00,
2013-05-19 13:44:00,74.0,55.7,29.70,WNW,292,2.0,11.0,53,0.02,,,0.11,Weather View 32 v70,2013-05-19 17:44:00,
2013-05-19 13:49:00,74.1,50.7,29.69,WSW,247,3.0,11.0,44,0.04,,,0.13,Weather View 32 v70,2013-05-19 17:49:00,
2013-05-19 13:54:00,74.0,48.1,29.69,South,180,2.0,11.0,40,0.06,,,0.15,Weather View 32 v70,2013-05-19 17:54:00,
2013-05-19 14:00:00,74.5,49.8,29.69,South,180,3.0,11.0,42,0.08,,,0.16,Weather View 32 v70,2013-05-19 18:00:00,
2013-05-19 14:05:00,75.3,54.2,29.69,South,180,3.0,11.0,48,0.09,,,0.17,Weather View 32 v70,2013-05-19 18:05:00,
2013-05-19 14:10:00,75.8,64.0,29.69,SSW,202,4.0,10.0,67,0.09,,,0.17,Weather View 32 v70,2013-05-19 18:10:00,
2013-05-19 14:15:00,76.4,67.1,29.69,South,180,6.0,10.0,73,0.08,,,0.17,Weather View 32 v70,2013-05-19 18:15:00,
2013-05-19 14:20:00,75.8,70.6,29.69,South,180,5.0,12.0,84,0.08,,,0.17,Weather View 32 v70,2013-05-19 18:20:00,
2013-05-19 14:25:00,75.7,69.4,29.69,SSW,202,9.0,12.0,81,0.08,,,0.17,Weather View 32 v70,2013-05-19 18:25:00,
2013-05-19 14:30:00,75.5,69.6,29.69,South,180,6.0,12.0,82,0.08,,,0.17,Weather View 32 v70,2013-05-19 18:30:00,
2013-05-19 14:35:00,74.6,66.1,29.70,SSE,157,17.0,17.0,75,0.08,,,0.17,Weather View 32 v70,2013-05-19 18:35:00,
2013-05-19 14:40:00,72.9,57.7,29.70,SSE,157,12.0,19.0,59,0.08,,,0.17,Weather View 32 v70,2013-05-19 18:40:00,
2013-05-19 14:45:00,72.4,55.3,29.71,South,180,6.0,19.0,55,0.06,,,0.17,Weather View 32 v70,2013-05-19 18:45:00,
2013-05-19 14:50:00,71.7,52.6,29.71,SSE,157,6.0,19.0,51,0.05,,,0.18,Weather View 32 v70,2013-05-19 18:50:00,
2013-05-19 14:55:00,70.9,44.6,29.70,South,180,6.0,19.0,39,0.04,,,0.19,Weather View 32 v70,2013-05-19 18:55:00,
2013-05-19 15:00:00,70.9,39.5,29.69,SE,135,5.0,19.0,32,0.05,,,0.21,Weather View 32 v70,2013-05-19 19:00:00,
2013-05-19 15:05:00,70.9,37.0,29.69,SSE,157,8.0,19.0,29,0.06,,,0.23,Weather View 32 v70,2013-05-19 19:05:00,
2013-05-19 15:10:00,70.9,37.0,29.69,SSE,157,4.0,19.0,29,0.08,,,0.25,Weather View 32 v70,2013-05-19 19:10:00,
2013-05-19 15:15:00,70.5,35.7,29.70,SW,225,5.0,19.0,28,0.09,,,0.26,Weather View 32 v70,2013-05-19 19:15:00,
2013-05-19 15:20:00,70.3,36.5,29.70,SSE,157,7.0,19.0,29,0.10,,,0.27,Weather View 32 v70,2013-05-19 19:20:00,
2013-05-19 15:25:00,70.3,35.6,29.70,SW,225,6.0,19.0,28,0.11,,,0.28,Weather View 32 v70,2013-05-19 19:25:00,
2013-05-19 15:30:00,69.9,33.4,29.71,South,180,2.0,19.0,26,0.12,,,0.29,Weather View 32 v70,2013-05-19 19:30:00,
2013-05-19 15:35:00,69.7,32.2,29.70,SW,225,3.0,19.0,25,0.13,,,0.30,Weather View 32 v70,2013-05-19 19:35:00,
2013-05-19 15:40:00,69.4,29.9,29.70,SW,225,6.0,14.0,23,0.14,,,0.31,Weather View 32 v70,2013-05-19 19:40:00,
2013-05-19 15:45:00,69.3,28.7,29.70,SSW,202,2.0,12.0,22,0.15,,,0.33,Weather View 32 v70,2013-05-19 19:45:00,
2013-05-19 15:50:00,69.3,26.4,29.71,SW,225,6.0,12.0,20,0.15,,,0.34,Weather View 32 v70,2013-05-19 19:50:00,
2013-05-19 15:55:00,69.2,25.1,29.70,SW,225,2.0,12.0,19,0.16,,,0.35,Weather View 32 v70,2013-05-19 19:55:00,
2013-05-19 16:00:00,69.1,23.7,29.69,SW,225,0.0,12.0,18,0.16,,,0.37,Weather View 32 v70,2013-05-19 20:00:00,
2013-05-19 16:05:00,69.1,22.4,29.69,SW,225,0.0,12.0,17,0.15,,,0.38,Weather View 32 v70,2013-05-19 20:05:00,
2013-05-19 16:10:00,69.2,21.0,29.68,SSW,202,1.0,11.0,16,0.15,,,0.40,Weather View 32 v70,2013-05-19 20:10:00,
2013-05-19 16:15:00,69.2,19.5,29.68,SE,135,3.0,11.0,15,0.16,,,0.42,Weather View 32 v70,2013-05-19 20:15:00,
2013-05-19 16:20:00,69.3,18.0,29.69,SSE,157,1.0,10.0,14,0.17,,,0.44,Weather View 32 v70,2013-05-19 20:20:00,
2013-05-19 16:25:00,69.5,14.6,29.69,SE,135,2.0,10.0,12,0.18,,,0.46,Weather View 32 v70,2013-05-19 20:25:00,
2013-05-19 16:30:00,69.7,12.7,29.69,ESE,112,2.0,10.0,11,0.19,,,0.48,Weather View 32 v70,2013-05-19 20:30:00,
2013-05-19 16:35:00,69.5,12.6,29.70,ESE,112,4.0,10.0,11,0.20,,,0.50,Weather View 32 v70,2013-05-19 20:35:00,
2013-05-19 16:40:00,69.5,10.4,29.70,ESE,112,5.0,10.0,10,0.21,,,0.52,Weather View 32 v70,2013-05-19 20:40:00,
2013-05-19 16:45:00,69.3,10.3,29.70,SE,135,3.0,7.0,10,0.22,,,0.54,Weather View 32 v70,2013-05-19 20:45:00,
2013-05-19 16:50:00,69.5,8.1,29.70,SE,135,3.0,7.0,9,0.22,,,0.55,Weather View 32 v70,2013-05-19 20:50:00,
2013-05-19 16:55:00,69.4,5.4,29.70,SE,135,1.0,7.0,8,0.20,,,0.55,Weather View 32 v70,2013-05-19 20:55:00,
2013-05-19 17:00:00,69.5,5.5,29.70,SE,135,3.0,7.0,8,0.18,,,0.55,Weather View 32 v70,2013-05-19 21:00:00,
2013-05-19 17:05:00,69.5,2.6,29.69,SE,135,4.0,7.0,7,0.17,,,0.55,Weather View 32 v70,2013-05-19 21:05:00,
2013-05-19 17:10:00,69.6,2.7,29.69,SE,135,4.0,7.0,7,0.15,,,0.55,Weather View 32 v70,2013-05-19 21:10:00,
2013-05-19 17:15:00,69.7,-0.6,29.69,SE,135,3.0,7.0,6,0.13,,,0.55,Weather View 32 v70,2013-05-19 21:15:00,
2013-05-19 17:20:00,69.9,-0.4,29.69,SE,135,1.0,7.0,6,0.11,,,0.55,Weather View 32 v70,2013-05-19 21:20:00,
2013-05-19 17:25:00,69.9,-4.2,29.69,SE,135,3.0,7.0,5,0.09,,,0.55,Weather View 32 v70,2013-05-19 21:25:00,
2013-05-19 17:30:00,70.4,-3.9,29.70,SE,135,2.0,7.0,5,0.07,,,0.55,Weather View 32 v70,2013-05-19 21:30:00,
2013-05-19 17:35:00,70.4,-3.9,29.70,SE,135,3.0,7.0,5,0.05,,,0.55,Weather View 32 v70,2013-05-19 21:35:00,
2013-05-19 17:40:00,70.4,-3.9,29.70,ESE,112,2.0,6.0,5,0.03,,,0.55,Weather View 32 v70,2013-05-19 21:40:00,
2013-05-19 17:45:00,70.5,0.0,29.70,ESE,112,2.0,6.0,6,0.01,,,0.55,Weather View 32 v70,2013-05-19 21:45:00,
2013-05-19 17:50:00,70.3,-0.1,29.69,SE,135,4.0,6.0,6,0.00,,,0.55,Weather View 32 v70,2013-05-19 21:50:00,
2013-05-19 17:56:00,70.3,-0.1,29.70,SE,135,2.0,6.0,6,0.00,,,0.55,Weather View 32 v70,2013-05-19 21:56:00,
2013-05-19 18:01:00,70.7,-3.7,29.70,SE,135,3.0,6.0,5,0.00,,,0.55,Weather View 32 v70,2013-05-19 22:01:00,
2013-05-19 18:06:00,70.6,-3.7,29.70,SE,135,2.0,6.0,5,0.00,,,0.55,Weather View 32 v70,2013-05-19 22:06:00,
2013-05-19 18:11:00,70.4,-3.9,29.70,ESE,112,4.0,6.0,5,0.00,,,0.55,Weather View 32 v70,2013-05-19 22:11:00,
2013-05-19 18:16:00,70.2,-0.2,29.70,ESE,112,2.0,6.0,6,0.00,,,0.55,Weather View 32 v70,2013-05-19 22:16:00,
2013-05-19 18:21:00,70.2,-4.0,29.69,SE,135,2.0,6.0,5,0.00,,,0.55,Weather View 32 v70,2013-05-19 22:21:00,
2013-05-19 18:26:00,70.1,-4.1,29.69,SE,135,3.0,6.0,5,0.00,,,0.55,Weather View 32 v70,2013-05-19 22:26:00,
2013-05-19 18:31:00,70.4,-8.5,29.69,SE,135,2.0,6.0,4,0.00,,,0.55,Weather View 32 v70,2013-05-19 22:31:00,
2013-05-19 18:36:00,70.2,-8.6,29.69,SE,135,3.0,6.0,4,0.00,,,0.55,Weather View 32 v70,2013-05-19 22:36:00,
2013-05-19 18:41:00,70.4,-14.3,29.69,SSE,157,3.0,6.0,3,0.00,,,0.55,Weather View 32 v70,2013-05-19 22:41:00,
2013-05-19 18:46:00,70.6,-22.0,29.69,SSW,202,4.0,7.0,2,0.00,,,0.55,Weather View 32 v70,2013-05-19 22:46:00,
2013-05-19 18:51:00,70.6,-14.1,29.69,South,180,2.0,7.0,3,0.00,,,0.55,Weather View 32 v70,2013-05-19 22:51:00,
2013-05-19 18:56:00,70.7,-14.1,29.68,South,180,2.0,7.0,3,0.00,,,0.55,Weather View 32 v70,2013-05-19 22:56:00,
2013-05-19 19:01:00,70.7,-8.3,29.68,SE,135,3.0,7.0,4,0.00,,,0.55,Weather View 32 v70,2013-05-19 23:01:00,
2013-05-19 19:06:00,70.6,-8.3,29.68,SE,135,4.0,7.0,4,0.00,,,0.55,Weather View 32 v70,2013-05-19 23:06:00,
2013-05-19 19:11:00,70.7,-8.3,29.68,SSE,157,1.0,7.0,4,0.00,,,0.55,Weather View 32 v70,2013-05-19 23:11:00,
2013-05-19 19:16:00,70.8,-14.0,29.68,SSW,202,1.0,7.0,3,0.00,,,0.55,Weather View 32 v70,2013-05-19 23:16:00,
2013-05-19 19:21:00,70.9,-13.9,29.68,SW,225,2.0,7.0,3,0.00,,,0.55,Weather View 32 v70,2013-05-19 23:21:00,
2013-05-19 19:26:00,70.9,-13.9,29.68,South,180,2.0,7.0,3,0.00,,,0.55,Weather View 32 v70,2013-05-19 23:26:00,
2013-05-19 19:31:00,70.6,-8.3,29.68,South,180,2.0,7.0,4,0.00,,,0.55,Weather View 32 v70,2013-05-19 23:31:00,
2013-05-19 19:36:00,70.6,-14.1,29.68,SSW,202,2.0,7.0,3,0.00,,,0.55,Weather View 32 v70,2013-05-19 23:36:00,
2013-05-19 19:41:00,70.7,-14.1,29.69,SSW,202,1.0,7.0,3,0.00,,,0.55,Weather View 32 v70,2013-05-19 23:41:00,
2013-05-19 19:46:00,70.7,-14.1,29.68,South,180,2.0,7.0,3,0.00,,,0.55,Weather View 32 v70,2013-05-19 23:46:00,
2013-05-19 19:51:00,70.6,-22.0,29.68,South,180,2.0,7.0,2,0.00,,,0.55,Weather View 32 v70,2013-05-19 23:51:00,
2013-05-19 19:56:00,70.6,-22.0,29.68,South,180,1.0,7.0,2,0.00,,,0.55,Weather View 32 v70,2013-05-19 23:56:00,
2013-05-19 20:01:00,70.6,-22.0,29.69,SSW,202,1.0,7.0,2,0.00,,,0.55,Weather View 32 v70,2013-05-20 00:01:00,
2013-05-19 20:06:00,70.5,-34.8,29.69,South,180,1.0,7.0,1,0.00,,,0.55,Weather View 32 v70,2013-05-20 00:06:00,
2013-05-19 20:11:00,70.4,-22.1,29.69,South,180,2.0,7.0,2,0.00,,,0.55,Weather View 32 v70,2013-05-20 00:11:00,
2013-05-19 20:16:00,70.4,-34.8,29.69,South,180,2.0,7.0,1,0.00,,,0.55,Weather View 32 v70,2013-05-20 00:16:00,
2013-05-19 20:21:00,70.3,-34.9,29.69,South,180,1.0,7.0,1,0.00,,,0.55,Weather View 32 v70,2013-05-20 00:21:00,
2013-05-19 20:26:00,70.3,-34.9,29.69,South,180,1.0,7.0,1,0.00,,,0.55,Weather View 32 v70,2013-05-20 00:26:00,
2013-05-19 20:31:00,70.2,-34.9,29.69,South,180,2.0,5.0,1,0.00,,,0.55,Weather View 32 v70,2013-05-20 00:31:00,
2013-05-19 20:36:00,70.1,-35.0,29.69,South,180,2.0,5.0,1,0.00,,,0.55,Weather View 32 v70,2013-05-20 00:36:00,
2013-05-19 20:41:00,69.9,-35.1,29.69,South,180,4.0,5.0,1,0.00,,,0.55,Weather View 32 v70,2013-05-20 00:41:00,
2013-05-19 20:46:00,69.9,-35.1,29.69,SSW,202,2.0,5.0,1,0.00,,,0.55,Weather View 32 v70,2013-05-20 00:46:00,
2013-05-19 20:51:00,69.9,-35.1,29.69,South,180,2.0,5.0,1,0.00,,,0.55,Weather View 32 v70,2013-05-20 00:51:00,
2013-05-19 20:56:00,69.8,-35.2,29.69,SSW,202,2.0,5.0,1,0.00,,,0.55,Weather View 32 v70,2013-05-20 00:56:00,
2013-05-19 21:01:00,69.7,-35.2,29.69,South,180,1.0,5.0,1,0.00,,,0.55,Weather View 32 v70,2013-05-20 01:01:00,
2013-05-19 21:06:00,69.6,-35.3,29.69,South,180,1.0,5.0,1,0.00,,,0.55,Weather View 32 v70,2013-05-20 01:06:00,
2013-05-19 21:11:00,69.5,-22.7,29.69,South,180,2.0,5.0,2,0.00,,,0.55,Weather View 32 v70,2013-05-20 01:11:00,
2013-05-19 21:16:00,69.3,-22.8,29.69,South,180,1.0,5.0,2,0.00,,,0.55,Weather View 32 v70,2013-05-20 01:16:00,
2013-05-19 21:21:00,69.3,-22.8,29.69,South,180,2.0,5.0,2,0.00,,,0.55,Weather View 32 v70,2013-05-20 01:21:00,
2013-05-19 21:26:00,69.2,-22.9,29.69,SSW,202,2.0,5.0,2,0.00,,,0.55,Weather View 32 v70,2013-05-20 01:26:00,
2013-05-19 21:31:00,69.2,-22.9,29.69,South,180,2.0,5.0,2,0.00,,,0.55,Weather View 32 v70,2013-05-20 01:31:00,
2013-05-19 21:37:00,69.1,-22.9,29.69,South,180,2.0,5.0,2,0.00,,,0.55,Weather View 32 v70,2013-05-20 01:37:00,
2013-05-19 21:42:00,69.1,-22.9,29.69,South,180,2.0,5.0,2,0.00,,,0.55,Weather View 32 v70,2013-05-20 01:42:00,
2013-05-19 21:47:00,68.9,-23.1,29.69,South,180,1.0,5.0,2,0.00,,,0.55,Weather View 32 v70,2013-05-20 01:47:00,
2013-05-19 21:52:00,68.9,-23.1,29.69,South,180,2.0,4.0,2,0.00,,,0.55,Weather View 32 v70,2013-05-20 01:52:00,
2013-05-19 21:57:00,69.1,-35.6,29.70,South,180,1.0,6.0,1,0.00,,,0.55,Weather View 32 v70,2013-05-20 01:57:00,
2013-05-19 22:02:00,69.1,-35.6,29.70,South,180,3.0,6.0,1,0.00,,,0.55,Weather View 32 v70,2013-05-20 02:02:00,
2013-05-19 22:07:00,69.1,-35.6,29.70,SSW,202,2.0,6.0,1,0.00,,,0.55,Weather View 32 v70,2013-05-20 02:07:00,
2013-05-19 22:12:00,69.2,-35.5,29.71,South,180,2.0,6.0,1,0.00,,,0.55,Weather View 32 v70,2013-05-20 02:12:00,
2013-05-19 22:17:00,69.2,-35.5,29.71,South,180,3.0,7.0,1,0.00,,,0.55,Weather View 32 v70,2013-05-20 02:17:00,
2013-05-19 22:22:00,69.1,-35.6,29.71,South,180,2.0,7.0,1,0.00,,,0.55,Weather View 32 v70,2013-05-20 02:22:00,
2013-05-19 22:27:00,69.1,-35.6,29.71,South,180,1.0,7.0,1,0.00,,,0.55,Weather View 32 v70,2013-05-20 02:27:00,
2013-05-19 22:32:00,68.9,-35.7,29.71,South,180,2.0,7.0,1,0.00,,,0.55,Weather View 32 v70,2013-05-20 02:32:00,
2013-05-19 22:37:00,69.1,-35.6,29.71,South,180,2.0,7.0,1,0.00,,,0.55,Weather View 32 v70,2013-05-20 02:37:00,
2013-05-19 22:42:00,69.1,-35.6,29.71,SSE,157,3.0,7.0,1,0.00,,,0.55,Weather View 32 v70,2013-05-20 02:42:00,
2013-05-19 22:47:00,69.1,-35.6,29.71,SSW,202,3.0,7.0,1,0.00,,,0.55,Weather View 32 v70,2013-05-20 02:47:00,
2013-05-19 22:52:00,69.0,-35.7,29.71,South,180,1.0,7.0,1,0.00,,,0.55,Weather View 32 v70,2013-05-20 02:52:00,
2013-05-19 22:57:00,68.9,-35.7,29.71,South,180,2.0,7.0,1,0.00,,,0.55,Weather View 32 v70,2013-05-20 02:57:00,
2013-05-19 23:02:00,69.1,-35.6,29.71,South,180,2.0,7.0,1,0.00,,,0.55,Weather View 32 v70,2013-05-20 03:02:00,
2013-05-19 23:07:00,69.0,-35.7,29.71,SSE,157,2.0,7.0,1,0.00,,,0.55,Weather View 32 v70,2013-05-20 03:07:00,
2013-05-19 23:12:00,68.9,-35.7,29.71,SSE,157,1.0,7.0,1,0.00,,,0.55,Weather View 32 v70,2013-05-20 03:12:00,
2013-05-19 23:17:00,68.9,-35.7,29.71,SSE,157,2.0,6.0,1,0.00,,,0.55,Weather View 32 v70,2013-05-20 03:17:00,
2013-05-19 23:22:00,68.8,-35.8,29.71,SSE,157,1.0,6.0,1,0.00,,,0.55,Weather View 32 v70,2013-05-20 03:22:00,
2013-05-19 23:27:00,68.7,-35.8,29.71,SSE,157,2.0,6.0,1,0.00,,,0.55,Weather View 32 v70,2013-05-20 03:27:00,
2013-05-19 23:32:00,68.7,-35.8,29.71,SSE,157,1.0,6.0,1,0.00,,,0.55,Weather View 32 v70,2013-05-20 03:32:00,
2013-05-19 23:37:00,68.7,-35.8,29.71,SSE,157,1.0,6.0,1,0.00,,,0.55,Weather View 32 v70,2013-05-20 03:37:00,
2013-05-19 23:42:00,68.7,-35.8,29.71,SSE,157,0.0,5.0,1,0.00,,,0.55,Weather View 32 v70,2013-05-20 03:42:00,
2013-05-19 23:47:00,68.7,-35.8,29.71,SSE,157,0.0,5.0,1,0.00,,,0.55,Weather View 32 v70,2013-05-20 03:47:00,
2013-05-19 23:52:00,68.7,-35.8,29.71,SSE,157,2.0,4.0,1,0.00,,,0.55,Weather View 32 v70,2013-05-20 03:52:00,
2013-05-19 23:57:00,68.8,-35.8,29.71,SSE,157,2.0,3.0,1,0.00,,,0.55,Weather View 32 v70,2013-05-20 03:57:00,